Hagerstown, MD

9:47 PM EST on November 19, 2019 (GMT -0500)
Hagerstown Regional-Henson

Weather History for KHGR - September, 2019

Change the Weather History Date:

Sunday, September 29, 2019

  Actual Average Record
Temperature  
Mean Temperature 75 °F 60 °F  
Max Temperature 83 °F 70 °F 83 °F (2019)
Min Temperature 66 °F 51 °F 37 °F (2000)
Degree Days  
Heating Degree Days 0 5  
Month to date heating degree days 1 61  
Since 1 July heating degree days 1 66  
Cooling Degree Days 10 1  
Month to date cooling degree days 226 90  
Year to date cooling degree days 1435 958  
Growing Degree Days 25 (Base 50)    
Moisture  
Dew Point 62 °F    
Average Humidity 69    
Maximum Humidity 90    
Minimum Humidity 47    
Precipitation  
Precipitation T in 0.14 in 1.40 in (2015)
Month to date precipitation 0.40 3.53  
Year to date precipitation 28.77 30.16  
Sea Level Pressure  
Sea Level Pressure 30.24 in    
Wind  
Wind Speed 6 mph (NNE)    
Max Wind Speed 14 mph    
Max Gust Speed 18 mph    
Visibility 9 miles    
Events      
T = Trace of Precipitation, MM = Missing Value Source: NWS Daily Summary

Daily Weather History Graph

Daily Weather History Graph

Search for Another Location

Airport or City:

Astronomy

Sep. 29, 2019 Rise Set
Actual Time 7:04 AM EDT 6:56 PM EDT
Civil Twilight 6:38 AM EDT 7:23 PM EDT
Nautical Twilight 6:06 AM EDT 7:55 PM EDT
Astronomical Twilight 5:35 AM EDT 8:26 PM EDT
Moon 7:53 AM EDT (9/29) 7:56 PM EDT (9/29)
Length of Visible Light 12h 45m
Length of Day
11h 51m
New Moon, 1% of the Moon is Illuminated
Sep 29
New Moon
Oct 5
First Quarter
Oct 13
Full
Oct 21
Last Quarter
Oct 27
New

Hourly Weather History & Observations

Time (EDT) Temp. Heat Index Dew Point Humidity Pressure Visibility Wind Dir Wind Speed Gust Speed Precip Events Conditions
12:53 AM 73.9 °F - 66.0 °F 76% 30.15 in 10.0 mi Calm Calm - N/A   Clear
1:53 AM 73.0 °F - 66.0 °F 79% 30.16 in 10.0 mi Calm Calm - N/A   Clear
2:53 AM 70.0 °F - 66.0 °F 87% 30.17 in 7.0 mi NNW 5.8 mph - N/A   Clear
3:53 AM 70.0 °F - 66.0 °F 87% 30.18 in 7.0 mi Calm Calm - N/A   Clear
4:53 AM 68.0 °F - 64.9 °F 90% 30.19 in 5.0 mi Calm Calm - N/A   Clear
5:53 AM 68.0 °F - 64.9 °F 90% 30.20 in 6.0 mi NNE 3.5 mph - N/A   Clear
6:53 AM 68.0 °F - 64.0 °F 87% 30.22 in 10.0 mi ENE 4.6 mph - N/A   Clear
7:53 AM 68.0 °F - 64.0 °F 87% 30.24 in 7.0 mi Calm Calm - N/A   Clear
8:53 AM 72.0 °F - 64.0 °F 76% 30.26 in 10.0 mi NW 4.6 mph - N/A   Clear
9:53 AM 75.9 °F - 63.0 °F 64% 30.28 in 10.0 mi North 11.5 mph - N/A   Clear
10:53 AM 78.1 °F - 62.1 °F 58% 30.29 in 10.0 mi NNE 15.0 mph - N/A   Clear
11:53 AM 79.0 °F - 62.1 °F 56% 30.29 in 10.0 mi North 8.1 mph 17.3 mph N/A   Partly Cloudy
12:53 PM 79.0 °F - 61.0 °F 54% 30.28 in 10.0 mi North 12.7 mph - N/A   Partly Cloudy
1:53 PM 80.1 °F 81.1 °F 61.0 °F 52% 30.27 in 10.0 mi North 9.2 mph - N/A   Partly Cloudy
2:53 PM 81.0 °F 81.6 °F 60.1 °F 49% 30.25 in 10.0 mi North 6.9 mph - N/A   Clear
3:53 PM 82.0 °F 82.4 °F 60.1 °F 47% 30.24 in 10.0 mi NE 10.4 mph - N/A   Partly Cloudy
4:53 PM 80.1 °F 80.7 °F 59.0 °F 48% 30.24 in 10.0 mi NE 8.1 mph - N/A   Clear
5:53 PM 79.0 °F - 59.0 °F 50% 30.25 in 10.0 mi NNE 11.5 mph - N/A   Clear
6:53 PM 75.9 °F - 59.0 °F 56% 30.25 in 10.0 mi NE 8.1 mph - N/A   Clear
7:53 PM 73.9 °F - 59.0 °F 59% 30.25 in 10.0 mi East 6.9 mph - N/A   Clear
8:53 PM 73.0 °F - 57.9 °F 59% 30.27 in 10.0 mi NNE 5.8 mph - N/A   Clear
9:53 PM 72.0 °F - 57.9 °F 61% 30.28 in 10.0 mi North 5.8 mph - N/A   Clear
10:53 PM 72.0 °F - 55.9 °F 57% 30.28 in 10.0 mi ENE 3.5 mph - N/A   Mostly Cloudy
11:53 PM 71.1 °F - 55.9 °F 59% 30.28 in 10.0 mi North 3.5 mph - N/A   Scattered Clouds